Lapse_Rate
6.7 6.8 6.9 7.1 7.0 7.2 7.4 7.6 7.9 8.8 8.6 8.8 8.7 8.6 8.7 8.1 7.9 7.4 7.5 7.5 7.2 6.8 6.4 6.1 6.1 5.7 5.5 5.4 5.5 5.3 5.1 5.1 5.1 5.2 5.3 5.6 5.5 5.5 5.5 5.4 5.3 5.0 5.2 5.2
6.9 6.9 7.3 7.2 7.3 7.4 7.8 7.8 8.4 8.9 8.8 8.7 8.7 8.6 8.5 8.3 8.2 7.8 7.8 7.6 7.6 7.0 6.8 6.5 6.4 6.5 6.1 5.8 5.4 5.3 5.0 4.9 5.1 5.1 5.1 5.3 5.3 5.3 5.3 5.4 5.4 5.0 5.1 5.2
7.0 7.2 7.4 7.4 7.5 7.7 8.0 8.0 8.3 8.7 9.0 8.9 8.5 8.6 8.7 8.4 8.1 8.1 7.9 7.6 7.3 7.1 6.8 6.7 6.5 6.7 6.3 6.3 5.9 5.4 5.1 5.0 5.3 5.0 5.1 5.2 5.2 5.4 5.4 5.3 5.2 4.9 5.1 5.3
7.2 7.3 7.7 7.7 7.9 8.1 8.5 8.5 8.6 8.9 8.9 8.3 8.3 8.8 8.9 8.5 8.5 8.3 8.0 7.8 7.4 6.9 6.8 6.7 6.7 6.5 6.4 6.3 5.9 5.5 5.2 4.9 5.1 5.2 5.1 5.1 5.1 5.2 5.0 5.0 4.9 5.1 5.3 5.3
7.4 7.7 7.7 7.8 8.5 8.6 8.5 8.6 8.7 8.7 8.7 8.7 8.7 8.5 9.1 8.7 8.4 8.3 8.1 8.1 7.8 7.0 6.8 6.9 6.7 6.7 6.5 6.3 5.7 5.8 5.3 5.1 4.8 5.0 5.3 5.5 5.5 5.3 5.1 5.1 5.2 5.3 5.4 5.4
7.8 7.8 8.0 8.7 9.0 9.0 8.7 8.8 8.6 8.5 8.7 9.1 8.7 8.2 9.0 8.5 8.6 8.5 8.4 8.0 7.7 7.4 7.2 7.1 6.8 6.9 6.9 6.6 6.4 6.1 6.0 5.4 5.2 5.0 5.4 5.7 5.9 5.6 5.4 5.3 5.5 5.4 5.5 5.4
8.2 8.5 9.0 9.2 9.3 9.1 9.0 8.8 8.7 8.8 9.0 9.3 8.6 7.9 9.0 8.7 8.6 8.4 8.3 8.0 7.9 7.7 7.4 7.2 7.0 7.1 7.2 6.8 6.5 6.6 6.1 6.1 5.7 5.6 5.7 5.8 6.0 5.9 5.7 5.4 5.4 5.4 5.4 5.3
7.9 8.9 8.9 9.1 8.9 8.7 8.8 8.4 8.7 8.4 9.0 9.2 8.6 8.9 9.0 8.5 8.5 8.1 8.2 8.2 8.0 7.8 7.8 7.5 7.4 7.4 7.2 6.6 6.7 6.3 6.1 5.9 5.7 5.7 5.7 6.1 6.0 6.1 6.0 5.8 5.6 5.6 5.4 5.4
8.2 8.6 9.0 8.9 8.9 9.0 9.1 9.1 8.8 8.2 8.2 8.5 8.6 8.9 9.2 8.6 8.4 8.1 8.1 8.4 8.2 8.1 7.9 7.9 7.6 7.3 7.0 7.0 7.0 7.1 6.8 6.2 6.0 5.8 5.8 6.2 6.3 6.2 6.2 6.1 6.0 5.8 5.6 5.6
8.5 8.4 8.8 9.0 9.1 9.1 9.0 8.9 8.8 8.7 9.0 8.8 8.9 8.7 8.9 8.9 8.6 8.4 8.4 8.3 8.3 8.3 8.2 8.4 8.3 7.6 7.3 7.0 6.9 7.0 6.8 6.5 6.2 5.9 5.8 6.1 6.4 6.2 6.2 6.2 6.3 6.1 5.9 5.7
8.6 8.3 9.0 9.2 9.2 9.1 9.1 8.7 9.0 9.0 8.7 9.3 9.0 9.3 9.0 9.0 8.7 8.8 8.5 8.4 8.1 8.3 8.1 8.0 8.0 7.8 7.4 7.0 6.8 6.7 6.9 6.8 6.6 6.4 6.5 6.3 6.2 6.1 6.3 6.5 6.4 6.2 6.1 6.0
8.3 8.0 8.5 9.0 8.9 9.0 9.1 9.1 9.0 9.1 8.4 8.3 8.3 8.9 9.0 9.0 9.0 8.9 8.8 8.5 8.3 8.0 8.1 8.0 7.9 7.7 7.4 7.3 6.9 6.8 6.7 6.9 6.8 6.6 6.4 6.3 6.4 6.2 6.3 6.4 6.3 6.3 6.1 6.1
7.8 7.7 8.1 8.5 8.5 8.7 8.9 8.9 8.9 9.0 8.9 8.7 8.8 9.1 8.9 8.9 8.6 8.5 8.6 8.6 8.2 8.1 8.0 8.1 8.0 7.6 7.4 7.1 6.8 6.6 6.6 6.6 6.6 7.0 6.5 6.4 6.4 6.2 6.4 6.2 6.2 6.4 6.2 6.1
7.5 7.6 7.7 8.2 8.4 8.5 8.7 8.8 8.8 9.1 9.1 9.2 8.8 8.9 9.1 9.0 8.9 8.4 8.5 8.5 8.4 8.4 8.1 7.8 7.9 7.7 7.5 7.5 7.1 6.7 6.5 6.5 6.5 6.4 6.6 6.4 6.3 6.3 6.4 6.4 6.4 6.3 6.2 6.1
7.2 7.2 7.5 7.7 7.9 8.0 8.2 8.5 8.7 8.7 8.8 8.8 9.1 8.8 8.9 8.7 8.8 8.6 8.5 8.4 8.3 8.2 8.1 7.8 7.4 7.5 7.6 7.4 7.4 7.1 6.9 6.8 6.7 6.4 6.5 6.4 6.4 6.4 6.4 6.4 6.4 6.4 6.5 6.4
6.8 6.6 7.0 7.2 7.4 7.6 7.8 8.1 8.2 8.4 8.6 8.6 8.7 8.5 8.5 8.2 8.0 8.0 8.1 8.3 8.2 8.2 8.2 8.0 7.8 7.3 7.2 7.2 6.9 6.9 7.0 6.9 6.7 6.6 6.4 6.6 6.6 6.5 6.5 6.5 6.6 6.5 6.4 6.4
6.4 6.2 6.5 6.8 7.1 7.3 7.2 7.7 8.2 8.3 8.5 8.7 8.7 8.6 8.5 8.3 8.0 8.0 8.0 8.2 7.9 7.7 7.8 8.1 8.2 7.8 7.4 7.2 7.0 6.8 6.6 6.5 6.5 6.4 6.4 6.5 6.6 6.6 6.6 6.6 6.6 6.5 6.5 6.4
6.7 6.2 6.1 6.4 6.4 7.0 7.4 7.5 7.8 8.2 8.3 8.4 8.7 8.8 8.6 8.4 8.3 8.0 7.9 8.0 8.1 7.8 7.8 7.8 8.3 8.2 7.9 7.7 7.3 7.1 6.7 6.5 6.6 6.5 6.4 6.5 6.7 6.5 6.5 6.6 6.5 6.5 6.4 6.3
6.4 6.2 5.9 6.3 6.6 6.7 6.6 6.8 7.0 7.6 7.7 8.2 8.4 8.4 8.5 8.4 8.4 8.1 7.6 7.6 7.9 7.7 7.8 7.8 8.2 8.6 8.4 8.2 7.8 7.6 7.4 7.1 6.9 6.9 6.6 6.4 6.9 7.0 7.0 7.0 6.8 6.7 6.6 6.6
6.3 6.5 6.0 6.1 6.5 7.0 6.2 6.7 7.0 6.9 7.0 7.6 7.8 8.1 8.3 8.5 7.8 8.0 7.5 7.3 7.3 7.5 7.4 7.8 7.9 8.2 8.5 8.5 8.3 7.9 7.7 7.5 7.4 7.4 7.0 6.6 6.7 6.9 6.9 6.7 6.9 7.0 7.1 7.0
6.0 6.1 6.0 6.0 6.3 6.3 6.3 6.4 6.7 6.6 7.1 6.9 7.1 7.3 7.6 7.7 7.7 7.7 7.4 7.0 7.0 7.0 7.1 7.2 7.5 7.6 7.8 8.1 8.2 8.3 7.8 7.6 7.6 7.5 7.4 7.3 7.3 7.2 7.1 7.0 6.7 7.0 7.1 7.0
6.0 6.1 6.0 6.1 5.9 6.3 6.0 5.9 6.2 6.2 6.1 6.2 6.4 6.5 6.7 6.9 6.8 6.9 6.9 6.6 6.5 6.6 6.7 6.6 6.6 7.0 7.4 7.6 8.0 8.3 8.3 7.9 7.7 7.9 7.5 7.3 7.4 7.3 7.1 7.1 7.0 7.0 7.2 7.4
5.8 6.1 6.2 6.2 6.1 6.1 6.0 5.9 6.0 6.0 5.9 6.0 6.1 6.2 6.4 6.5 6.5 6.4 6.4 6.5 6.3 6.2 6.2 6.4 6.6 6.7 6.8 6.9 7.4 7.9 7.8 8.0 8.1 7.9 8.0 7.7 7.6 7.4 7.4 7.3 7.2 6.9 6.8 6.9
5.9 5.8 5.7 5.7 5.9 6.0 5.9 5.8 5.7 5.7 5.7 5.5 5.6 5.7 5.8 6.0 6.2 6.4 6.3 6.3 6.2 6.0 6.1 6.3 6.4 6.7 6.8 7.0 7.0 7.3 7.6 7.9 8.1 8.0 7.8 7.8 7.8 7.8 7.5 7.3 7.5 7.4 6.8 6.2
5.6 5.3 5.4 5.5 5.8 5.5 5.6 5.7 5.5 5.4 5.3 5.2 5.1 5.0 5.0 5.1 5.5 5.8 6.2 6.4 6.3 5.9 5.8 5.8 6.2 6.7 6.9 6.9 7.0 7.1 7.3 7.4 7.5 7.7 7.9 8.0 7.9 7.2 7.8 7.9 7.7 7.6 7.7 7.1
6.1 5.7 5.3 5.3 5.4 5.2 5.4 5.3 5.3 5.2 5.3 5.2 5.0 5.1 5.0 5.0 5.3 5.5 5.7 6.0 6.1 6.1 5.8 5.6 5.8 6.0 6.4 6.7 6.6 6.6 6.9 7.2 7.3 7.4 7.5 7.7 7.8 7.9 7.9 7.9 7.8 7.9 7.6 6.3
Wind_Speed
2 5 8 5 3 3 6 7 10 20 10 6 9 18 17 12 15 15 16 17 18 20 17 15 16 16 16 15 15 16 14 13 9 7 6 6 7 7 6 7 7 7 8 8
3 9 7 3 3 6 7 9 12 13 4 5 6 17 17 11 18 21 20 18 19 18 16 15 16 17 17 17 17 15 15 13 11 8 6 5 7 6 6 7 7 9 9 9
4 1 5 1 8 8 7 7 6 8 10 0 9 10 6 3 8 12 16 16 17 19 19 17 16 18 18 18 18 16 16 15 12 10 7 4 5 3 5 6 5 7 10 9
5 3 6 6 6 5 7 8 10 9 5 6 5 7 4 4 5 11 14 16 18 16 19 18 16 17 18 18 14 14 15 14 12 13 10 11 7 7 7 7 6 5 7 8
1 4 5 7 7 8 4 1 3 2 3 3 2 4 3 5 5 3 9 18 19 17 16 18 19 18 17 11 14 14 13 13 12 13 13 10 8 6 5 6 7 6 5 8
10 1 5 8 2 9 2 4 1 1 1 4 1 3 3 5 8 9 10 7 11 18 18 16 14 13 13 13 14 12 14 13 14 14 14 13 11 8 7 6 4 4 5 4
5 4 3 4 5 3 5 5 5 3 2 3 1 4 6 3 8 5 12 10 4 12 16 13 14 15 14 15 15 13 14 14 14 15 14 13 11 10 9 9 7 6 5 5
4 2 6 6 5 5 5 5 4 3 2 6 2 5 5 3 8 5 6 3 2 10 13 14 16 14 13 13 13 12 12 12 14 15 14 12 12 8 8 8 7 6 5 5
4 5 2 5 2 3 5 4 2 3 1 4 2 4 2 2 3 7 7 6 2 9 12 15 16 15 14 16 13 16 14 13 14 15 13 13 12 11 9 9 6 5 5 4
3 6 1 2 4 4 4 7 3 2 3 4 3 5 7 7 8 8 10 11 9 4 8 13 15 17 16 17 10 10 13 14 12 14 13 12 13 13 11 9 9 8 7 5
3 6 2 5 3 2 4 4 2 3 2 3 3 4 3 3 5 7 9 11 11 8 5 9 11 14 16 16 11 10 10 12 12 13 12 12 12 13 12 10 10 9 8 8
2 3 5 3 1 4 3 3 5 3 4 1 2 3 1 3 4 4 8 9 9 8 3 5 10 14 14 13 12 12 12 11 12 12 12 13 12 12 12 12 12 10 10 9
2 3 4 4 4 4 5 3 2 6 3 5 3 3 2 4 5 6 9 10 7 6 0 4 8 11 12 13 13 12 11 11 10 11 12 11 12 12 13 12 12 11 10 9
5 2 5 9 4 4 4 5 5 5 4 5 6 7 10 9 11 12 12 11 10 5 1 3 7 10 12 12 12 12 12 11 10 10 11 11 12 13 13 13 12 12 12 10
2 4 3 6 8 6 9 8 9 9 4 7 5 6 9 10 12 11 10 12 11 5 7 2 5 7 9 11 11 11 11 10 10 11 11 12 10 11 11 12 12 12 12 11
3 5 2 8 5 2 5 9 8 11 6 8 6 10 1 9 12 15 14 14 12 12 10 11 2 5 7 8 9 10 11 10 10 11 11 10 10 11 11 11 11 10 11 10
4 4 3 11 2 7 10 10 9 5 6 6 8 2 6 8 12 13 14 14 13 11 11 9 6 5 3 7 9 9 9 9 11 11 11 11 10 10 11 10 10 10 11 10
5 2 2 5 3 10 0 6 4 10 2 3 4 6 8 7 4 12 12 12 13 13 10 8 5 3 3 2 7 8 9 11 11 11 12 11 11 11 10 10 11 11 10 11
9 7 4 4 7 6 2 3 4 4 2 1 3 7 9 10 10 11 14 12 10 12 8 8 6 4 2 3 6 10 10 11 11 12 11 12 12 12 12 12 12 10 8 7
7 3 5 3 4 4 4 4 4 2 6 3 4 6 9 10 4 6 13 13 11 10 8 7 8 7 5 5 4 8 10 10 12 12 12 10 11 12 11 11 11 8 7 7
1 2 6 6 5 2 2 8 1 5 2 1 1 3 5 5 4 7 9 11 10 9 11 8 8 7 6 5 6 6 7 9 10 10 9 11 12 11 11 10 7 7 7 7
2 2 3 2 4 5 6 1 3 3 2 3 3 2 4 5 6 5 7 9 10 12 11 10 8 8 5 4 5 7 6 4 6 9 9 9 10 9 8 9 8 8 10 10
3 2 2 4 2 2 3 2 1 1 3 4 5 4 4 7 8 8 8 10 10 10 9 10 9 10 8 7 5 8 7 5 4 8 10 10 8 6 7 9 8 6 6 7
3 3 3 3 1 4 4 4 3 1 7 7 7 8 8 9 11 12 11 10 10 10 10 9 9 10 11 8 8 9 7 7 7 10 10 9 12 11 9 8 8 6 5 2
2 3 4 8 10 9 11 10 9 12 12 11 10 9 10 10 12 14 15 14 12 11 11 10 9 10 12 11 10 9 7 7 7 9 9 9 8 12 12 8 8 7 8 8
6 11 8 8 8 10 9 8 10 12 13 12 12 13 14 14 16 17 16 15 14 13 12 12 12 13 14 13 13 10 8 7 7 9 9 11 11 11 10 10 9 10 15 8
Wind_Direction
61 218 232 264 233 282 281 280 288 288 299 272 259 264 271 205 203 215 218 209 210 217 221 219 217 215 210 209 200 197 194 198 187 186 193 199 204 208 217 215 222 211 193 207
196 240 258 201 230 239 255 296 301 288 309 211 320 292 283 219 212 210 214 214 218 224 223 219 214 211 208 203 202 194 196 188 194 202 191 192 199 204 218 212 217 219 206 207
216 195 113 198 259 255 265 258 291 282 325 27 318 290 353 33 240 228 230 226 225 226 223 221 214 209 207 204 198 193 192 190 187 185 178 171 174 169 203 222 219 214 213 217
248 228 233 252 253 243 279 215 276 298 311 324 348 318 360 343 266 222 223 224 224 226 225 226 219 204 200 203 199 190 190 187 183 177 189 197 197 201 209 211 214 206 205 194
186 203 200 240 259 181 286 304 323 331 304 303 5 286 322 345 10 352 237 230 219 215 209 210 210 206 199 184 184 183 182 184 185 190 196 192 204 206 199 205 211 212 186 189
261 184 238 241 182 208 154 267 197 134 302 271 75 322 302 9 321 310 316 291 227 213 217 209 206 193 194 182 184 173 177 181 186 197 197 197 199 202 204 197 202 188 184 193
300 227 226 218 250 167 202 240 283 283 253 304 163 261 279 283 352 296 311 308 231 202 200 191 184 189 184 190 187 178 180 183 191 199 196 199 202 199 202 206 196 192 187 201
308 159 186 172 242 292 203 260 243 260 289 327 170 318 349 200 356 347 336 344 159 190 203 192 190 183 176 182 188 190 192 187 188 198 203 195 201 203 211 214 211 207 215 226
203 257 256 250 231 226 139 204 355 181 160 268 353 293 265 266 358 351 2 8 293 185 188 191 185 175 173 190 185 189 194 195 191 196 200 196 193 203 208 213 214 223 230 240
205 275 224 137 152 86 245 130 177 195 247 286 315 293 300 346 338 347 355 357 343 298 187 182 187 184 188 196 194 184 180 193 195 197 197 199 194 198 200 202 211 215 221 220
196 229 220 255 196 213 148 201 83 110 298 250 294 314 203 296 305 319 339 347 346 351 196 189 186 182 197 197 193 186 176 196 193 201 194 198 198 199 200 201 208 215 220 222
215 232 262 281 52 261 261 220 199 231 182 23 322 273 209 270 305 300 316 341 358 7 299 183 179 180 194 199 195 192 199 195 195 199 198 200 198 196 204 207 208 203 211 214
165 230 266 254 176 177 243 178 137 120 147 179 235 281 170 271 283 356 338 340 349 30 12 217 185 183 195 204 206 201 197 204 204 196 197 196 201 197 207 212 213 203 206 212
184 241 261 264 314 343 239 195 187 241 215 182 228 270 297 9 10 16 8 348 326 341 51 217 231 210 190 199 210 214 218 206 201 198 203 204 201 204 205 205 208 209 207 210
330 269 240 268 272 258 265 265 198 214 210 238 309 241 291 12 20 31 13 7 11 356 346 315 232 226 233 200 200 208 216 210 197 200 203 207 205 210 208 203 204 205 205 210
356 267 242 278 229 279 281 273 258 245 213 245 243 270 255 64 55 38 27 17 19 7 355 347 352 230 215 241 235 205 207 202 202 202 214 207 197 201 204 206 203 204 205 209
281 266 227 256 283 297 269 254 237 234 238 236 208 240 345 29 45 44 35 27 15 356 352 351 353 26 197 209 210 224 218 203 197 210 205 201 200 199 203 205 201 202 205 205
231 211 277 284 285 252 37 45 277 247 210 252 302 18 354 16 111 64 42 20 10 4 351 352 356 11 14 189 190 189 196 205 202 206 208 193 192 199 202 202 205 205 205 205
226 208 223 246 236 302 168 10 2 352 157 85 10 19 357 358 157 66 18 13 10 4 347 344 345 314 227 203 185 176 186 199 202 208 210 200 193 198 196 201 207 207 206 208
118 214 230 183 243 265 57 356 338 303 250 74 75 25 5 3 201 26 352 351 358 4 354 333 330 314 274 264 254 186 184 196 213 211 204 209 204 200 205 212 201 198 206 201
147 144 223 224 251 277 18 330 134 215 37 31 2 14 13 29 14 323 327 344 359 343 343 340 325 306 319 311 268 256 180 206 221 214 202 200 208 209 201 195 206 189 176 165
260 250 204 184 234 243 14 220 285 33 32 338 337 347 336 335 334 340 337 343 345 345 338 332 318 306 291 300 298 278 260 187 206 203 194 206 206 203 198 193 186 182 167 156
238 274 321 248 332 349 300 299 149 185 346 345 313 319 322 317 323 326 326 329 332 330 325 317 304 302 299 294 270 275 274 288 239 195 198 188 184 184 179 173 164 163 165 163
203 189 251 280 166 262 251 224 235 254 322 304 292 297 304 305 313 310 307 308 312 318 311 310 298 290 298 296 282 269 276 256 218 180 170 156 134 118 98 89 81 75 18 317
315 186 264 265 284 282 260 248 270 296 304 288 286 276 282 292 301 306 305 302 298 298 299 291 274 265 272 286 282 282 286 265 229 181 161 136 136 119 117 115 121 117 74 348
224 252 260 275 298 279 277 298 301 302 290 284 293 285 279 288 298 299 295 295 294 292 288 281 267 256 258 266 274 277 267 256 239 222 192 175 154 149 135 138 137 117 87 63